Regional Weather Roundup
Issued by NWS Burlington, VT

Current Version | Previous Version | Text Only | Print | Product List | Glossary On
Versions: 1 2 3 4 5 6 7 8 9 10 11 12 13 14 15 16 17 18 19 20 21 22 23 24 25 26 27 28 29 30 31 32 33 34 35 36 37 38 39 40 41 42 43 44 45 46 47 48 49 50
465
ASUS41 KBTV 070510
RWRBTV
VERMONT REGIONAL WEATHER ROUNDUP
NATIONAL WEATHER SERVICE BURLINGTON VT
1200 AM EST SUN FEB 07 2016

NOTE: "FAIR" INDICATES FEW OR NO CLOUDS BELOW 12,000 FEET WITH NO
SIGNIFICANT WEATHER AND/OR OBSTRUCTIONS TO VISIBILITY.

* THESE REPORTS ARE NOT UNDER NWS QUALITY CONTROL AND/OR DO NOT
  REPORT WEATHER SUCH AS PRECIPITATION AND FOG.

VTZ001>019-070600-
_____VERMONT_____


CITY           SKY/WX    TMP DP  RH WIND       PRES   REMARKS
BURLINGTON     CLOUDY    35  20  54 SW8       30.10F WCI  29
MONTPELIER     FAIR      33  17  51 W15G26    30.09S WCI  23
MORRISVILLE    CLOUDY    35  19  52 SW7       30.08F WCI  29
ST. JOHNSBURY*   N/A     33  18  53 MISG      30.06F
LYNDONVILLE*   CLOUDY    32  19  59 S6        30.06F WCI  26
RUTLAND*       CLOUDY    32  18  55 CALM      30.12F
SPRINGFIELD    MOCLDY    25  21  85 CALM      30.15F
HIGHGATE*      CLOUDY    35  24  64 SW6G16    30.07F WCI  30
NEWPORT*       CLOUDY    32  22  65 SW16G24   30.04S WCI  22
BENNINGTON     CLOUDY    34  18  52 W7        30.15F WCI  28
SUTTON*          N/A     30 N/A N/A MISG        N/A

_____LAKE CHAMPLAIN_____


CITY           SKY/WX    TMP DP  RH WIND       PRES   REMARKS

$$

NYZ007-026>031-035-052-083-070600-
_____NORTHERN NEW YORK_____


CITY           SKY/WX    TMP DP  RH WIND       PRES   REMARKS
PLATTSBURGH    CLOUDY    35  21  56 SW7       30.09S WCI  29
SARANAC LAKE   CLOUDY    27  20  75 SW8       30.02F WCI  19
MASSENA        CLOUDY    34  25  69 SW17      30.07F WCI  23
OGDENSBURG*    CLEAR     36  27  69 SW9G16    30.08S WCI  29
POTSDAM*       CLOUDY    34  27  75 SW15G24   30.07F WCI  24
WATERTOWN      CLOUDY    35  26  69 SW9       30.12F WCI  28
ALBANY         MOCLDY    34  19  54 S7        30.18F WCI  28
GLENS FALLS    CLOUDY    34  20  56 S6        30.15F WCI  29

$$
NHZ002-005-011-070600-
_____NEW HAMPSHIRE_____


CITY           SKY/WX    TMP DP  RH WIND       PRES   REMARKS
LEBANON        CLEAR     31  20  63 S14       30.12F WCI  21
MT WASHINGTON  FOG        9   9 100 W62         N/A  VSB 0   WCI -21
PLYMOUTH       FAIR      26  23  86 CALM      30.13S
WHITEFIELD     MOCLDY    33  17  51 SW6       30.06F WCI  28

$$

_____REGIONAL QUEBEC LOCATIONS_____


CITY           SKY/WX    TMP DP  RH WIND       PRES   REMARKS
MONTREAL       MOCLDY    34  27  75 SW20G26   30.02F WCI  22
QUEBEC CITY    FLURRIES  32  25  74 SW21G29   29.90F WCI  20
SHERBROOKE     LGT SNOW  30  28  93 SW8       30.00F WCI  23

_____REGIONAL ONTARIO LOCATIONS_____


CITY           SKY/WX    TMP DP  RH WIND       PRES   REMARKS
OTTAWA         CLOUDY    32  23  69 SW12G18   30.03S WCI  23

______KEY______
VSB  - VISIBILITY IN MILES
WCI  - WIND CHILL INDEX
HX   - HEAT INDEX
$$
NNNN




USA.gov is the U.S. government's official web portal to all federal, state and local government web resources and services.